When you browse on this site, cookies collect data to enhance your experience and personalize the content and advertising you see.
Visit our Privacy Policy to learn more. By continuing to use the site, you agree to this use of cookies and data.
  • In Austria
  • List of Countries
  • For 7 days
  • Water Temperature
  • Satellite Maps
  • Weather Map
  • News
  • Weather Widgets
  • user-avatar
    Login

    Hourly Weather Zhmerynka

    Today, 19 April, Friday

    Time Temperature Precipitation Wind Pressure Humidity
    00:00 +8°C° 0.2 mm 2 mps 740 mmHg 67%
    01:00 +8°C° 0.2 mm 3 mps 739 mmHg 73%
    02:00 +7°C° 0.2 mm 3 mps 739 mmHg 78%
    03:00 +6°C° 0.1 mm 4 mps 739 mmHg 79%
    04:00 +5°C° 0.1 mm 4 mps 739 mmHg 80%
    05:00 +5°C° 0.1 mm 5 mps 738 mmHg 81%
    06:00 +6°C° 0 mm 5 mps 739 mmHg 78%
    07:00 +7°C° 0 mm 6 mps 739 mmHg 74%
    08:00 +6°C° 0 mm 7 mps 740 mmHg 71%
    09:00 +9°C° 0.1 mm 7 mps 740 mmHg 65%
    10:00 +10°C° 0.1 mm 7 mps 740 mmHg 59%
    11:00 +11°C° 0.1 mm 7 mps 741 mmHg 53%
    12:00 +11°C° 0.2 mm 7 mps 741 mmHg 51%
    13:00 +12°C° 0.2 mm 7 mps 741 mmHg 49%
    14:00 +13°C° 0.2 mm 6 mps 742 mmHg 46%
    15:00 +11°C° 0.2 mm 6 mps 742 mmHg 51%
    16:00 +11°C° 0.2 mm 6 mps 742 mmHg 55%
    17:00 +10°C° 0.2 mm 5 mps 741 mmHg 59%
    18:00 +10°C° 0 mm 4 mps 742 mmHg 63%
    19:00 +8°C° 0 mm 3 mps 742 mmHg 66%
    20:00 +7°C° 0 mm 2 mps 742 mmHg 69%
    21:00 +6°C° 0 mm 2 mps 742 mmHg 70%
    22:00 +6°C° 0 mm 2 mps 743 mmHg 70%
    23:00 +6°C° 0 mm 1 mps 743 mmHg 70%

    Tomorrow, 20 April, Saturday

    Time Temperature Precipitation Wind Pressure Humidity
    00:00 +6°C° 0 mm 1 mps 743 mmHg 71%
    01:00 +6°C° 0 mm 1 mps 743 mmHg 71%
    02:00 +6°C° 0 mm 1 mps 743 mmHg 71%
    03:00 +5°C° 0 mm 1 mps 743 mmHg 72%
    04:00 +5°C° 0 mm 1 mps 743 mmHg 72%
    05:00 +5°C° 0 mm 1 mps 743 mmHg 73%
    06:00 +6°C° 0 mm 1 mps 743 mmHg 69%
    07:00 +8°C° 0 mm 1 mps 743 mmHg 66%
    08:00 +9°C° 0 mm 1 mps 743 mmHg 62%
    09:00 +10°C° 0.1 mm 1 mps 743 mmHg 58%
    10:00 +11°C° 0.1 mm 1 mps 743 mmHg 54%
    11:00 +12°C° 0.1 mm 1 mps 743 mmHg 50%
    12:00 +12°C° 0.1 mm 1 mps 742 mmHg 50%
    13:00 +12°C° 0.1 mm 1 mps 742 mmHg 50%
    14:00 +12°C° 0.1 mm 1 mps 742 mmHg 50%
    15:00 +12°C° 0.1 mm 1 mps 741 mmHg 51%
    16:00 +12°C° 0.1 mm 1 mps 741 mmHg 52%
    17:00 +12°C° 0.1 mm 1 mps 741 mmHg 54%
    18:00 +11°C° 0 mm 1 mps 740 mmHg 58%
    19:00 +10°C° 0 mm 1 mps 740 mmHg 62%
    20:00 +9°C° 0 mm 1 mps 740 mmHg 66%
    21:00 +8°C° 0 mm 1 mps 740 mmHg 68%
    22:00 +8°C° 0 mm 1 mps 740 mmHg 70%
    23:00 +7°C° 0 mm 2 mps 740 mmHg 72%

    Day after tomorrow, 21 April, Sunday

    Time Temperature Precipitation Wind Pressure Humidity
    00:00 +8°C° 0.1 mm 1 mps 739 mmHg 74%
    01:00 +8°C° 0.1 mm 1 mps 739 mmHg 75%
    02:00 +8°C° 0.1 mm 1 mps 739 mmHg 76%
    03:00 +7°C° 0.5 mm 1 mps 739 mmHg 78%
    04:00 +7°C° 0.5 mm 1 mps 739 mmHg 81%
    05:00 +7°C° 0.5 mm 1 mps 738 mmHg 83%
    06:00 +7°C° 0.1 mm 2 mps 738 mmHg 80%
    07:00 +7°C° 0.1 mm 2 mps 739 mmHg 77%
    08:00 +8°C° 0.1 mm 2 mps 739 mmHg 74%
    09:00 +9°C° 0.3 mm 2 mps 739 mmHg 70%
    10:00 +11°C° 0.3 mm 3 mps 739 mmHg 66%
    11:00 +12°C° 0.3 mm 3 mps 739 mmHg 61%
    12:00 +12°C° 0.7 mm 3 mps 738 mmHg 61%
    13:00 +12°C° 0.7 mm 3 mps 738 mmHg 60%
    14:00 +13°C° 0.7 mm 2 mps 738 mmHg 59%
    15:00 +12°C° 0.7 mm 3 mps 738 mmHg 62%
    16:00 +11°C° 0.7 mm 3 mps 738 mmHg 65%
    17:00 +11°C° 0.7 mm 3 mps 738 mmHg 69%
    18:00 +10°C° 0.3 mm 3 mps 738 mmHg 73%
    19:00 +9°C° 0.3 mm 3 mps 738 mmHg 78%
    20:00 +7°C° 0.3 mm 4 mps 738 mmHg 82%
    21:00 +7°C° 0 mm 4 mps 738 mmHg 83%
    22:00 +7°C° 0 mm 4 mps 739 mmHg 84%
    23:00 +7°C° 0 mm 4 mps 739 mmHg 84%

    22 April, Monday

    Time Temperature Precipitation Wind Pressure Humidity
    00:00 +6°C° 0.1 mm 4 mps 739 mmHg 84%
    01:00 +6°C° 0.1 mm 4 mps 739 mmHg 84%
    02:00 +6°C° 0.1 mm 4 mps 739 mmHg 84%
    03:00 +5°C° 0 mm 5 mps 740 mmHg 83%
    04:00 +5°C° 0 mm 5 mps 740 mmHg 81%
    05:00 +3°C° 0 mm 5 mps 740 mmHg 80%
    06:00 +5°C° 0 mm 5 mps 740 mmHg 74%
    07:00 +6°C° 0 mm 5 mps 741 mmHg 69%
    08:00 +7°C° 0 mm 6 mps 741 mmHg 64%
    09:00 +8°C° 0 mm 6 mps 741 mmHg 60%
    10:00 +9°C° 0 mm 6 mps 742 mmHg 56%
    11:00 +11°C° 0 mm 6 mps 742 mmHg 52%
    12:00 +11°C° 0 mm 6 mps 742 mmHg 50%
    13:00 +13°C° 0 mm 5 mps 742 mmHg 48%
    14:00 +13°C° 0 mm 5 mps 742 mmHg 46%
    15:00 +13°C° 0 mm 5 mps 742 mmHg 48%
    16:00 +13°C° 0 mm 5 mps 742 mmHg 49%
    17:00 +12°C° 0 mm 5 mps 742 mmHg 51%
    18:00 +10°C° 0 mm 5 mps 742 mmHg 54%
    19:00 +10°C° 0 mm 4 mps 742 mmHg 57%
    20:00 +7°C° 0 mm 4 mps 742 mmHg 61%
    21:00 +7°C° 0 mm 4 mps 743 mmHg 62%
    22:00 +8°C° 0 mm 3 mps 743 mmHg 62%
    23:00 +7°C° 0 mm 3 mps 743 mmHg 63%

    23 April, Tuesday

    Time Temperature Precipitation Wind Pressure Humidity
    00:00 +7°C° 0 mm 3 mps 743 mmHg 66%
    01:00 +5°C° 0 mm 3 mps 743 mmHg 68%
    02:00 +5°C° 0 mm 3 mps 743 mmHg 71%
    03:00 +5°C° 0 mm 3 mps 743 mmHg 72%
    04:00 +4°C° 0 mm 3 mps 743 mmHg 73%
    05:00 +4°C° 0 mm 3 mps 744 mmHg 75%
    06:00 +5°C° 0 mm 4 mps 744 mmHg 69%
    07:00 +7°C° 0 mm 5 mps 744 mmHg 63%
    08:00 +9°C° 0 mm 6 mps 745 mmHg 57%
    09:00 +10°C° 0 mm 6 mps 745 mmHg 53%
    10:00 +11°C° 0 mm 6 mps 745 mmHg 49%
    11:00 +12°C° 0 mm 7 mps 745 mmHg 45%
    12:00 +12°C° 0 mm 7 mps 744 mmHg 45%
    13:00 +14°C° 0 mm 7 mps 744 mmHg 45%
    14:00 +14°C° 0 mm 7 mps 744 mmHg 44%
    15:00 +14°C° 0 mm 7 mps 743 mmHg 46%
    16:00 +14°C° 0 mm 7 mps 743 mmHg 47%
    17:00 +14°C° 0 mm 6 mps 743 mmHg 48%
    18:00 +13°C° 0 mm 6 mps 743 mmHg 52%
    19:00 +10°C° 0 mm 5 mps 743 mmHg 56%
    20:00 +10°C° 0 mm 4 mps 743 mmHg 60%
    21:00 +8°C° 0 mm 4 mps 743 mmHg 62%
    22:00 +7°C° 0 mm 4 mps 743 mmHg 63%
    23:00 +7°C° 0 mm 4 mps 743 mmHg 65%

    24 April, Wednesday

    Time Temperature Precipitation Wind Pressure Humidity
    00:00 +6°C° 0 mm 4 mps 743 mmHg 65%
    01:00 +6°C° 0 mm 4 mps 743 mmHg 65%
    02:00 +5°C° 0 mm 4 mps 743 mmHg 65%
    03:00 +5°C° 0 mm 4 mps 743 mmHg 65%
    04:00 +5°C° 0 mm 4 mps 743 mmHg 66%
    05:00 +4°C° 0 mm 4 mps 743 mmHg 67%
    06:00 +6°C° 0 mm 5 mps 743 mmHg 63%
    07:00 +7°C° 0 mm 6 mps 743 mmHg 59%
    08:00 +9°C° 0 mm 7 mps 744 mmHg 56%
    09:00 +10°C° 0 mm 7 mps 744 mmHg 54%
    10:00 +11°C° 0 mm 7 mps 744 mmHg 52%
    11:00 +12°C° 0 mm 7 mps 744 mmHg 50%
    12:00 +14°C° 0 mm 7 mps 744 mmHg 49%
    13:00 +14°C° 0 mm 7 mps 743 mmHg 48%
    14:00 +15°C° 0 mm 7 mps 743 mmHg 47%
    15:00 +15°C° 0 mm 6 mps 743 mmHg 49%
    16:00 +15°C° 0 mm 6 mps 743 mmHg 50%
    17:00 +14°C° 0 mm 6 mps 742 mmHg 51%
    18:00 +13°C° 0 mm 5 mps 742 mmHg 57%
    19:00 +11°C° 0 mm 4 mps 742 mmHg 62%
    20:00 +10°C° 0 mm 3 mps 743 mmHg 67%
    21:00 +9°C° 0 mm 3 mps 743 mmHg 69%
    22:00 +8°C° 0 mm 3 mps 743 mmHg 72%
    23:00 +8°C° 0 mm 3 mps 743 mmHg 74%
    Show more